This is the latest recevied weather packets stored in our database for station/object KB1ZFK. If no packets are shown the sender has not sent any weather packets the latest 10 day(s).
| Time | Temp. | Humidity | Pressure | Rain* | Wind** | Luminosity | Snow |
|---|---|---|---|---|---|---|---|
| 1778104828 | 15° C | 95% | 1004.9 hPa | 0 mm | - | 13 W/m² | - |
| 1778104525 | 15° C | 95% | 1005 hPa | 0 mm | - | 15 W/m² | - |
| 1778104221 | 15° C | 95% | 1005 hPa | 0 mm | - | 20 W/m² | - |
| 1778103918 | 15° C | 95% | 1005 hPa | 0 mm | - | 30 W/m² | - |
| 1778103615 | 15° C | 95% | 1005 hPa | 0 mm | - | 12 W/m² | - |
| 1778103313 | 15° C | 95% | 1004.9 hPa | 0 mm | - | 18 W/m² | - |
| 1778103010 | 15° C | 95% | 1005 hPa | 0 mm | - | 29 W/m² | - |
| 1778102706 | 15° C | 95% | 1005 hPa | 1.78 mm | - | 26 W/m² | - |
| 1778102401 | 15° C | 95% | 1005.2 hPa | 1.78 mm | - | 17 W/m² | - |
| 1778102097 | 15° C | 95% | 1005.2 hPa | 1.78 mm | - | 22 W/m² | - |
| 1778101795 | 15° C | 95% | 1005.3 hPa | 0 mm | - | 27 W/m² | - |
| 1778101491 | 15° C | 95% | 1005.2 hPa | 0 mm | - | 23 W/m² | - |
| 1778101188 | 15° C | 95% | 1005 hPa | 0 mm | - | 23 W/m² | - |
| 1778100884 | 15° C | 95% | 1005.2 hPa | 0 mm | - | 39 W/m² | - |
| 1778100580 | 15° C | 95% | 1005.3 hPa | 0 mm | - | 31 W/m² | - |
| 1778100278 | 15.56° C | 95% | 1005.4 hPa | 0 mm | - | 19 W/m² | - |
| 1778099976 | 15.56° C | 95% | 1005.1 hPa | 1.78 mm | - | 21 W/m² | - |
| 1778099673 | 15.56° C | 95% | 1005.3 hPa | 1.78 mm | - | 39 W/m² | - |
| 1778099370 | 15.56° C | 95% | 1005.4 hPa | 1.78 mm | - | 42 W/m² | - |
| 1778099067 | 15.56° C | 94% | 1005.6 hPa | 1.27 mm | - | 38 W/m² | - |
| 1778098763 | 15.56° C | 94% | 1005.4 hPa | 1.27 mm | - | 50 W/m² | - |
| 1778098461 | 15.56° C | 94% | 1005.6 hPa | 0 mm | - | 63 W/m² | - |
| 1778098157 | 15.56° C | 94% | 1005.6 hPa | 1.78 mm | - | 54 W/m² | - |
| 1778097853 | 15.56° C | 94% | 1005.6 hPa | 1.78 mm | - | 48 W/m² | - |
| 1778097550 | 15.56° C | 94% | 1005.4 hPa | 0 mm | - | 56 W/m² | - |
* Rain latest hour (hover to see other rain measurements)
** Current wind speed in m/s (hover to see current wind gust speed)